This is the latest recevied weather packets stored in our database for station/object KJ4HF. If no packets are shown the sender has not sent any weather packets the latest 10 day(s).
| Time | Temp. | Humidity | Pressure | Rain* | Wind** | Luminosity | Snow |
|---|---|---|---|---|---|---|---|
| 1778145045 | 17.22° C | 97% | 1009.9 hPa | 0.25 mm | - | 0 W/m² | - |
| 1778143243 | 17.22° C | 97% | 1009.9 hPa | 0.25 mm | - | 0 W/m² | - |
| 1778142943 | 17.22° C | 97% | 1009.8 hPa | 0 mm | - | 0 W/m² | - |
| 1778142650 | 17.22° C | 97% | 1009.9 hPa | 0.25 mm | - | 0 W/m² | - |
| 1778141443 | 17.22° C | 97% | 1010 hPa | 0.25 mm | - | 0 W/m² | - |
| 1778139644 | 17.22° C | 97% | 1010.3 hPa | 1.02 mm | - | 0 W/m² | - |
| 1778138743 | 17.22° C | 97% | 1011.1 hPa | 0.76 mm | - | 0 W/m² | - |
| 1778137252 | 17.22° C | 97% | 1011.1 hPa | 1.02 mm | - | 0 W/m² | - |
| 1778132440 | 17.22° C | 97% | 1012.4 hPa | 0.76 mm | - | 0 W/m² | - |
| 1778131241 | 17.22° C | 96% | 1012.5 hPa | 0 mm | - | 0 W/m² | - |
| 1778130960 | 17.22° C | 96% | 1012.4 hPa | 0 mm | - | 0 W/m² | - |
| 1778127944 | 17.22° C | 96% | 1012.6 hPa | 0.25 mm | - | 0 W/m² | - |
| 1778126454 | 17.22° C | 96% | 1012 hPa | 5.08 mm | - | 0 W/m² | - |
| 1778125244 | 17.22° C | 95% | 1011.1 hPa | 5.84 mm | - | 0 W/m² | - |
| 1778124344 | 17.22° C | 95% | 1013.8 hPa | 6.1 mm | - | 0 W/m² | - |
| 1778122543 | 17.78° C | 95% | 1013.7 hPa | 1.52 mm | - | 0 W/m² | - |
| 1778121055 | 17.78° C | 94% | 1013.5 hPa | 1.52 mm | - | 0 W/m² | - |
| 1778119843 | 18.33° C | 92% | 1013.7 hPa | 1.02 mm | - | 0 W/m² | - |
| 1778119249 | 18.89° C | 91% | 1013.3 hPa | 0.76 mm | - | 0 W/m² | - |
| 1778118943 | 18.89° C | 92% | 1013 hPa | 0.76 mm | - | 0 W/m² | - |
| 1778118354 | 19.44° C | 91% | 1012.9 hPa | 0.51 mm | - | 0 W/m² | - |
| 1778117451 | 19.44° C | 90% | 1012.5 hPa | 0.25 mm | - | 0 W/m² | - |
| 1778116242 | 19.44° C | 92% | 1012.1 hPa | 0.25 mm | - | 0 W/m² | - |
| 1778114143 | 19.44° C | 92% | 1012.1 hPa | 0 mm | - | 0 W/m² | - |
| 1778113856 | 19.44° C | 92% | 1012.3 hPa | 0 mm | - | 0 W/m² | - |
* Rain latest hour (hover to see other rain measurements)
** Current wind speed in m/s (hover to see current wind gust speed)